WB1DX Weather Reports


time (UTC)temp
C
wind
direction
speed
KPH
gust
KPH
rain 1hr
cm
rain 24hr
cm
rain mn
cm
humidity
%
barometer
mb
20260506192903 14 182 4.8 4.8 0.00 0.00 0.30 91 983.0
20260506192403 15 194 1.6 3.2 0.18 0.00 0.30 91 983.0
20260506191903 15 188 3.2 4.8 0.00 0.00 0.28 90 984.0
20260506191403 15 187 4.8 4.8 0.13 0.00 0.28 90 984.0
20260506190904 15 175 4.8 4.8 0.13 0.00 0.28 91 984.0
20260506190403 15 180 1.6 3.2 0.00 0.00 0.25 90 984.0
20260506185902 15 179 3.2 4.8 0.18 0.00 0.25 90 984.0
20260506185402 15 192 3.2 3.2 0.18 0.00 0.25 90 984.0
20260506184902 15 188 3.2 6.4 0.13 0.00 0.23 90 984.0
20260506184402 15 192 0.0 4.8 0.13 0.00 0.23 90 983.0
20260506183902 15 187 3.2 4.8 0.00 0.00 0.20 90 983.0
20260506183402 15 196 3.2 3.2 0.00 0.00 0.20 90 984.0
20260506182902 15 175 1.6 4.8 0.18 0.00 0.20 90 984.0
20260506182403 15 185 1.6 3.2 0.13 0.00 0.18 89 984.0
20260506181909 15 189 3.2 4.8 0.30 0.00 0.18 89 984.0
20260506181403 15 211 3.2 3.2 0.30 0.00 0.15 89 984.0
20260506180903 15 176 1.6 3.2 0.18 0.00 0.10 88 984.0
20260506180403 15 176 1.6 3.2 0.36 0.00 0.10 86 984.0
20260506175903 16 177 3.2 4.8 0.18 0.00 0.08 85 984.0
20260506175402 16 185 3.2 4.8 0.13 0.00 0.05 83 984.0
20260506174902 16 176 3.2 4.8 0.13 0.00 0.05 83 984.0
20260506174404 16 176 3.2 6.4 0.00 0.00 0.03 82 985.0
20260506173902 16 180 3.2 4.8 0.18 0.00 0.03 80 985.0
20260506173404 17 173 4.8 4.8 0.18 0.00 0.03 78 985.0
20260506172903 17 173 4.8 12.9 0.00 0.00 0.00 75 985.0
20260506172402 18 203 4.8 6.4 0.00 0.00 0.00 70 985.0
20260506171903 19 173 6.4 9.7 0.00 0.00 0.00 64 985.0
20260506171404 20 172 6.4 6.4 0.00 0.00 0.00 61 984.0
20260506170903 20 279 9.7 16.1 0.00 0.00 0.00 59 984.0
20260506170405 20 173 3.2 4.8 0.00 0.00 0.00 59 984.0
20260506165903 20 197 6.4 14.5 0.00 0.00 0.00 58 984.0
20260506165403 20 162 3.2 11.3 0.00 0.00 0.00 58 984.0
20260506164903 20 173 3.2 6.4 0.00 0.00 0.00 58 984.0
20260506164404 20 187 4.8 9.7 0.00 0.00 0.00 57 984.0
20260506163903 20 162 6.4 11.3 0.00 0.00 0.00 57 984.0
20260506163403 20 179 3.2 9.7 0.00 0.00 0.00 57 984.0
20260506162904 20 173 8.0 9.7 0.00 0.00 0.00 57 984.0
20260506162403 20 165 4.8 11.3 0.00 0.00 0.00 56 984.0
20260506161903 20 280 3.2 3.2 0.00 0.00 0.00 57 985.0
20260506161402 20 177 3.2 6.4 0.00 0.00 0.00 56 985.0
20260506160906 20 170 6.4 9.7 0.00 0.00 0.00 55 985.0
20260506160405 21 164 3.2 6.4 0.00 0.00 0.00 55 985.0
20260506155904 20 180 3.2 4.8 0.00 0.00 0.00 55 984.0
20260506155403 20 168 4.8 6.4 0.00 0.00 0.00 54 985.0
20260506154904 20 171 4.8 12.9 0.00 0.00 0.00 55 985.0
20260506154402 21 246 9.7 14.5 0.00 0.00 0.00 54 985.0
20260506153906 21 174 3.2 4.8 0.00 0.00 0.00 55 985.0
20260506153409 20 173 6.4 6.4 0.00 0.00 0.00 56 985.0
20260506152903 20 157 6.4 14.5 0.00 0.00 0.00 56 985.0
20260506152402 20 164 3.2 4.8 0.00 0.00 0.00 58 985.0
20260506151904 20 208 4.8 4.8 0.00 0.00 0.00 58 985.0
20260506151403 20 189 6.4 14.5 0.00 0.00 0.00 58 985.0
20260506150903 20 169 6.4 6.4 0.00 0.00 0.00 59 986.0
20260506150404 20 164 4.8 4.8 0.00 0.00 0.00 60 985.0
20260506145903 20 212 4.8 9.7 0.00 0.00 0.00 59 986.0
20260506145403 20 190 3.2 6.4 0.00 0.00 0.00 60 985.0
20260506144903 20 141 3.2 4.8 0.00 0.00 0.00 60 985.0
20260506144402 20 180 3.2 4.8 0.00 0.00 0.00 60 985.0
20260506143903 20 203 3.2 4.8 0.00 0.00 0.00 61 985.0
20260506143404 20 174 3.2 3.2 0.00 0.00 0.00 62 986.0
20260506142903 20 183 4.8 4.8 0.00 0.00 0.00 61 986.0
20260506142403 19 159 6.4 6.4 0.00 0.00 0.00 62 986.0
20260506141903 20 171 4.8 4.8 0.00 0.00 0.00 62 986.0
20260506141403 20 186 3.2 4.8 0.00 0.00 0.00 62 986.0
20260506140903 19 171 3.2 9.7 0.00 0.00 0.00 63 986.0
20260506140402 19 166 6.4 6.4 0.00 0.00 0.00 63 985.0
20260506135904 18 223 3.2 6.4 0.00 0.00 0.00 64 985.0
20260506135403 18 166 3.2 4.8 0.00 0.00 0.00 64 985.0
20260506134904 18 162 1.6 4.8 0.00 0.00 0.00 65 985.0
20260506134403 18 182 3.2 4.8 0.00 0.00 0.00 64 985.0
20260506133903 19 272 4.8 6.4 0.00 0.00 0.00 64 985.0
20260506133402 18 167 6.4 9.7 0.00 0.00 0.00 65 986.0
20260506132903 18 159 1.6 4.8 0.00 0.00 0.00 65 986.0
20260506132404 18 212 4.8 6.4 0.00 0.00 0.00 66 985.0
20260506131904 18 153 3.2 6.4 0.00 0.00 0.00 67 985.0
20260506131403 18 163 3.2 4.8 0.00 0.00 0.00 68 985.0
20260506130902 18 179 3.2 4.8 0.00 0.00 0.00 68 986.0
20260506130403 18 174 3.2 4.8 0.00 0.00 0.00 68 986.0
20260506125902 18 171 4.8 4.8 0.00 0.00 0.00 68 986.0
20260506125403 17 181 1.6 3.2 0.00 0.00 0.00 69 986.0
20260506124903 17 178 6.4 9.7 0.00 0.00 0.00 69 986.0
20260506124402 17 173 1.6 4.8 0.00 0.00 0.00 72 986.0
20260506123902 17 188 3.2 6.4 0.00 0.00 0.00 72 986.0
20260506123404 17 176 3.2 4.8 0.00 0.00 0.00 71 986.0
20260506122904 17 180 4.8 4.8 0.00 0.00 0.00 72 986.0
20260506122404 17 171 4.8 6.4 0.00 0.00 0.00 71 986.0
20260506121904 17 167 6.4 6.4 0.00 0.00 0.00 71 986.0
20260506121403 17 154 3.2 4.8 0.00 0.00 0.00 73 986.0
20260506120903 16 158 1.6 3.2 0.00 0.00 0.00 74 986.0
20260506120404 16 179 3.2 3.2 0.00 0.00 0.00 75 986.0
20260506115903 16 176 3.2 3.2 0.00 0.00 0.00 74 986.0
20260506115403 16 177 1.6 3.2 0.00 0.00 0.00 74 986.0
20260506114902 16 190 3.2 3.2 0.00 0.00 0.00 75 986.0
20260506114403 16 158 3.2 3.2 0.00 0.00 0.00 75 986.0
20260506113903 16 158 3.2 4.8 0.00 0.00 0.00 76 986.0
20260506113403 15 215 1.6 6.4 0.00 0.00 0.00 77 986.0
20260506112902 15 204 3.2 3.2 0.00 0.00 0.00 78 986.0
20260506112402 15 205 1.6 1.6 0.00 0.00 0.00 79 987.0
20260506111903 15 206 1.6 1.6 0.00 0.00 0.00 80 986.0
20260506111403 15 206 0.0 3.2 0.00 0.00 0.00 80 986.0
20260506110902 15 206 1.6 3.2 0.00 0.00 0.00 80 986.0
20260506110402 15 207 1.6 1.6 0.00 0.00 0.00 80 987.0
20260506105904 15 200 3.2 3.2 0.00 0.00 0.00 80 987.0
20260506105403 14 212 1.6 4.8 0.00 0.00 0.00 80 987.0
20260506104903 14 198 3.2 4.8 0.00 0.00 0.00 80 986.0
20260506104403 14 187 3.2 4.8 0.00 0.00 0.00 80 986.0
20260506103902 14 186 1.6 3.2 0.00 0.00 0.00 80 986.0
20260506103403 14 187 1.6 3.2 0.00 0.00 0.00 81 986.0
20260506102905 14 197 1.6 3.2 0.00 0.00 0.00 81 986.0
20260506102402 14 196 1.6 1.6 0.00 0.00 0.00 81 986.0
20260506101904 14 199 1.6 1.6 0.00 0.00 0.00 81 986.0
20260506101403 14 212 3.2 3.2 0.00 0.00 0.00 81 986.0
20260506100902 14 202 3.2 3.2 0.00 0.00 0.00 81 986.0
20260506100403 14 204 1.6 1.6 0.00 0.00 0.00 80 986.0
20260506095902 14 205 1.6 1.6 0.00 0.00 0.00 80 986.0
20260506095403 14 206 0.0 1.6 0.00 0.00 0.00 80 986.0
20260506094904 14 222 3.2 3.2 0.00 0.00 0.00 80 986.0
20260506094404 14 273 1.6 6.4 0.00 0.00 0.00 80 986.0
20260506093903 14 207 1.6 1.6 0.00 0.00 0.00 79 986.0
20260506093403 14 217 1.6 3.2 0.00 0.00 0.00 79 986.0
20260506092903 14 218 1.6 3.2 0.00 0.00 0.00 79 986.0
20260506092403 14 177 1.6 3.2 0.00 0.00 0.00 79 986.0
20260506091903 14 159 1.6 3.2 0.00 0.00 0.00 79 986.0
20260506091403 14 155 1.6 3.2 0.00 0.00 0.00 79 986.0
20260506090903 14 155 1.6 1.6 0.00 0.00 0.00 78 986.0
20260506090403 14 277 6.4 11.3 0.00 0.00 0.00 78 986.0
20260506085904 14 192 1.6 3.2 0.00 0.00 0.00 78 986.0
20260506085403 14 190 1.6 3.2 0.00 0.00 0.00 78 986.0
20260506084902 14 189 3.2 9.7 0.00 0.00 0.00 78 986.0
20260506084402 14 211 1.6 1.6 0.00 0.00 0.00 78 986.0
20260506083903 14 212 0.0 1.6 0.00 0.00 0.00 78 986.0
20260506083404 14 212 1.6 1.6 0.00 0.00 0.00 78 986.0
20260506082903 14 226 4.8 4.8 0.00 0.00 0.00 78 986.0
20260506082403 14 201 1.6 4.8 0.00 0.00 0.00 77 986.0
20260506081903 14 195 3.2 3.2 0.00 0.00 0.00 77 986.0
20260506081402 14 221 3.2 3.2 0.00 0.00 0.00 77 986.0
20260506080905 14 184 0.0 3.2 0.00 0.00 0.00 77 986.0
20260506080402 14 278 4.8 6.4 0.00 0.00 0.00 77 986.0
20260506073402 14 182 3.2 1.6 0.00 0.00 0.00 77 986.0
20260506072903 14 181 1.6 1.6 0.00 0.00 0.00 77 986.0
20260506072402 14 181 1.6 1.6 0.00 0.00 0.00 77 986.0
20260506071902 14 176 0.0 1.6 0.00 0.00 0.00 76 986.0
20260506071403 15 176 0.0 1.6 0.00 0.00 0.00 75 986.0
20260506070902 15 153 0.0 1.6 0.00 0.00 0.00 75 986.0
20260506070402 15 150 1.6 1.6 0.00 0.00 0.00 75 986.0
20260506062403 15 184 1.6 1.6 0.00 0.00 0.00 72 986.0
20260506061903 15 176 1.6 3.2 0.00 0.00 0.00 71 986.0
20260506061402 15 176 1.6 3.2 0.00 0.00 0.00 70 986.0
20260506060904 15 188 3.2 3.2 0.00 0.00 0.00 70 986.0
20260506060402 15 184 3.2 4.8 0.00 0.00 0.00 70 986.0
20260506051403 16 171 3.2 6.4 0.00 0.00 0.00 66 986.0
20260506050902 16 183 1.6 3.2 0.00 0.00 0.00 65 986.0
20260506050403 16 192 3.2 3.2 0.00 0.00 0.00 64 986.0
20260506044902 16 184 3.2 3.2 0.00 0.00 0.00 64 986.0
20260506044403 16 170 3.2 3.2 0.00 0.00 0.00 63 986.0
20260506043903 16 169 1.6 4.8 0.00 0.00 0.00 63 986.0
20260506043402 16 185 1.6 3.2 0.00 0.00 0.00 63 986.0
20260506042903 16 215 1.6 4.8 0.00 0.00 0.00 63 987.0
20260506042403 16 195 3.2 4.8 0.00 0.00 0.00 63 986.0
20260506041902 16 181 1.6 4.8 0.00 0.00 0.00 63 986.0
20260506041402 16 190 3.2 3.2 0.00 0.00 0.00 63 987.0
20260506040903 16 193 3.2 3.2 0.00 0.00 0.00 63 986.0
20260506040402 16 194 3.2 4.8 0.00 0.00 0.00 63 987.0
20260506035903 16 183 1.6 3.2 0.00 0.00 0.00 62 986.0
20260506035403 16 182 3.2 3.2 0.00 0.00 0.00 62 987.0
20260506034902 16 185 4.8 4.8 0.00 0.00 0.00 62 987.0
20260506034403 16 172 1.6 1.6 0.00 0.00 0.00 63 987.0
20260506033902 16 172 1.6 3.2 0.00 0.00 0.00 63 986.0
20260506033403 16 173 4.8 4.8 0.00 0.00 0.00 63 986.0
20260506032903 16 175 3.2 3.2 0.00 0.00 0.00 64 987.0
20260506032404 16 190 1.6 3.2 0.00 0.00 0.00 64 987.0
20260506031903 16 169 1.6 3.2 0.00 0.00 0.00 63 987.0
20260506031402 16 169 1.6 3.2 0.00 0.00 0.00 63 987.0
20260506030902 16 169 3.2 3.2 0.00 0.00 0.00 63 986.0
20260506030402 16 187 3.2 3.2 0.00 0.00 0.00 63 986.0
20260506025903 16 195 1.6 4.8 0.00 0.00 0.00 62 986.0
20260506025402 16 205 3.2 3.2 0.00 0.00 0.00 62 987.0
20260506024902 16 189 3.2 3.2 0.00 0.00 0.00 62 987.0
20260506024402 16 191 3.2 4.8 0.00 0.00 0.00 62 987.0
20260506023903 16 177 3.2 3.2 0.00 0.00 0.00 62 986.0
20260506023402 16 210 3.2 4.8 0.00 0.00 0.00 62 986.0
20260506022902 16 181 3.2 3.2 0.00 0.00 0.00 62 987.0
20260506022403 16 182 1.6 3.2 0.00 0.00 0.00 61 987.0
20260506021903 16 183 3.2 4.8 0.00 0.00 0.00 61 987.0
20260506021402 16 185 1.6 3.2 0.00 0.00 0.00 60 987.0
20260506020902 16 175 3.2 4.8 0.00 0.00 0.00 60 986.0
20260506020403 16 172 4.8 4.8 0.00 0.00 0.00 59 987.0
20260506015902 17 177 4.8 4.8 0.00 0.00 0.00 58 987.0
20260506015402 17 182 1.6 3.2 0.00 0.00 0.00 58 987.0
20260506014902 17 241 1.6 6.4 0.00 0.00 0.00 58 986.0
20260506014403 17 182 1.6 6.4 0.00 0.00 0.00 57 986.0
20260506013903 17 188 3.2 9.7 0.00 0.00 0.00 56 986.0
20260506013403 17 171 1.6 4.8 0.00 0.00 0.00 56 986.0
20260506012903 17 190 4.8 6.4 0.00 0.00 0.00 55 986.0
20260506012403 17 194 3.2 3.2 0.00 0.00 0.00 55 986.0
20260506011902 17 187 3.2 3.2 0.00 0.00 0.00 56 986.0
20260506011403 17 180 1.6 4.8 0.00 0.00 0.00 56 986.0
20260506010903 18 161 0.0 4.8 0.00 0.00 0.00 56 986.0
20260506010403 18 190 3.2 3.2 0.00 0.00 0.00 55 986.0
20260506005902 18 177 1.6 3.2 0.00 0.00 0.00 55 986.0
20260506005402 18 175 1.6 1.6 0.00 0.00 0.00 55 986.0
20260506004902 18 175 3.2 3.2 0.00 0.00 0.00 54 986.0
20260506004402 18 178 3.2 4.8 0.00 0.00 0.00 54 986.0
20260506003903 18 178 1.6 6.4 0.00 0.00 0.00 53 986.0
20260506003403 18 173 0.0 3.2 0.00 0.00 0.00 53 986.0
20260506002903 18 172 1.6 4.8 0.00 0.00 0.00 52 986.0
20260506002403 18 166 0.0 9.7 0.00 0.00 0.00 52 985.0
20260506001902 19 182 3.2 3.2 0.00 0.00 0.00 52 985.0
20260506001402 19 171 4.8 4.8 0.00 0.00 0.00 52 985.0
20260506000903 19 171 3.2 4.8 0.00 0.00 0.00 51 985.0
20260506000402 19 202 6.4 6.4 0.00 0.00 0.00 50 985.0
20260505235902 20 179 3.2 6.4 0.00 0.00 0.00 50 985.0
20260505235403 20 179 6.4 6.4 0.00 0.00 0.00 50 985.0
20260505234903 20 288 4.8 9.7 0.00 0.00 0.00 49 985.0
20260505234402 20 184 3.2 4.8 0.00 0.00 0.00 49 985.0
20260505233903 20 157 1.6 4.8 0.00 0.00 0.00 48 985.0
20260505233403 20 181 6.4 14.5 0.00 0.00 0.00 47 984.0
20260505232903 20 178 6.4 9.7 0.00 0.00 0.00 47 984.0
20260505232403 20 169 3.2 4.8 0.00 0.00 0.00 47 984.0
20260505231903 20 183 3.2 6.4 0.00 0.00 0.00 47 984.0
20260505231402 21 169 3.2 4.8 0.00 0.00 0.00 47 984.0
20260505230903 21 202 6.4 9.7 0.00 0.00 0.00 47 984.0
20260505230402 21 187 3.2 6.4 0.00 0.00 0.00 46 984.0
20260505225903 21 168 3.2 6.4 0.00 0.00 0.00 46 984.0
20260505225402 21 165 1.6 6.4 0.00 0.00 0.00 46 984.0
20260505224902 21 175 4.8 6.4 0.00 0.00 0.00 45 984.0
20260505224402 21 186 4.8 6.4 0.00 0.00 0.00 45 984.0
20260505223903 22 178 6.4 9.7 0.00 0.00 0.00 44 984.0
20260505223402 22 173 8.0 11.3 0.00 0.00 0.00 44 984.0
20260505222903 22 178 3.2 9.7 0.00 0.00 0.00 44 984.0
20260505222402 22 175 3.2 6.4 0.00 0.00 0.00 43 984.0
20260505221902 22 183 6.4 12.9 0.00 0.00 0.00 43 984.0
20260505221403 22 299 6.4 12.9 0.00 0.00 0.00 43 984.0
20260505220902 22 220 6.4 9.7 0.00 0.00 0.00 43 984.0
20260505220402 23 164 3.2 6.4 0.00 0.00 0.00 43 983.0
20260505215902 23 171 4.8 6.4 0.00 0.00 0.00 43 983.0
20260505215402 23 213 4.8 11.3 0.00 0.00 0.00 42 984.0
20260505214905 23 231 3.2 6.4 0.00 0.00 0.00 42 983.0
20260505214402 23 177 4.8 22.5 0.00 0.00 0.00 40 984.0
20260505213903 23 214 8.0 11.3 0.00 0.00 0.00 40 984.0
20260505213403 24 153 1.6 9.7 0.00 0.00 0.00 39 984.0
20260505212902 24 188 11.3 16.1 0.00 0.00 0.00 38 983.0
20260505212403 25 171 4.8 6.4 0.00 0.00 0.00 37 983.0
20260505211903 25 171 6.4 11.3 0.00 0.00 0.00 38 983.0
20260505211402 25 188 4.8 11.3 0.00 0.00 0.00 37 983.0
20260505210904 25 196 6.4 12.9 0.00 0.00 0.00 36 983.0
20260505210403 25 180 8.0 20.9 0.00 0.00 0.00 35 983.0
20260505205903 25 163 4.8 14.5 0.00 0.00 0.00 34 983.0
20260505205402 25 158 9.7 11.3 0.00 0.00 0.00 36 983.0
20260505204902 25 152 4.8 11.3 0.00 0.00 0.00 35 983.0
20260505204402 26 169 6.4 16.1 0.00 0.00 0.00 34 983.0
20260505203903 26 189 4.8 6.4 0.00 0.00 0.00 34 983.0
20260505203402 26 169 8.0 14.5 0.00 0.00 0.00 33 983.0
20260505202902 26 179 6.4 20.9 0.00 0.00 0.00 33 983.0
20260505202402 26 167 8.0 12.9 0.00 0.00 0.00 33 983.0
20260505201904 26 206 8.0 14.5 0.00 0.00 0.00 31 983.0
20260505201402 26 166 3.2 9.7 0.00 0.00 0.00 33 983.0
20260505200902 26 175 9.7 14.5 0.00 0.00 0.00 31 983.0
20260505200403 27 161 9.7 17.7 0.00 0.00 0.00 30 983.0
20260505195904 27 191 8.0 9.7 0.00 0.00 0.00 30 983.0
20260505195402 27 162 8.0 14.5 0.00 0.00 0.00 31 983.0
20260505194903 27 128 6.4 11.3 0.00 0.00 0.00 31 983.0
20260505194402 27 152 6.4 12.9 0.00 0.00 0.00 30 983.0
20260505193904 27 191 4.8 14.5 0.00 0.00 0.00 29 983.0
20260505193402 27 158 6.4 9.7 0.00 0.00 0.00 31 983.0